United States

Ashburn, VA Weather Archive

Below you will find the last 24 hours of weather readings for Ashburn VA

Ashburn VA Today's Weather Data

Observed at: Ashburn, VA

Hour Observerd Temp Pressure Visibility Humidity Dew Point Wind
06:00 Overcast 43°F (6.1°C) 101.59 kPa 10 miles 81% 37.4°F (3°C) 3 mph SW 218.75°
05:00 Overcast 43°F (6.1°C) 101.59 kPa 10 miles 76% 35.6°F (2°C) 3 mph N 5°
04:00 Partly Cloudy 43°F (6.1°C) 101.59 kPa 10 miles 76% 35.6°F (2°C) 4 mph W 263.75°
03:00 Overcast 43°F (6.1°C) 101.59 kPa 10 miles 76% 35.6°F (2°C) 5 mph S 173.75°
02:00 Mostly Cloudy 41°F (5°C) 101.59 kPa 10 miles 81% 35.6°F (2°C) 5 mph NW 308.75°
01:00 Partly Cloudy 43°F (6.1°C) 101.59 kPa 10 miles 76% 35.6°F (2°C) 3 mph SW 218.75°
00:00 Overcast 45°F (7.2°C) 101.59 kPa 10 miles 71% 35.6°F (2°C) 3 mph N 5°
23:00 Fair 43°F (6.1°C) 101.59 kPa 10 miles 76% 35.6°F (2°C) 3 mph N 5°
22:00 Fair 43°F (6.1°C) 101.59 kPa 10 miles 76% 35.6°F (2°C) 3 mph SW 218.75°
21:00 Partly Cloudy 43°F (6.1°C) 101.59 kPa 10 miles 76% 35.6°F (2°C) 3 mph S 173.75°
20:00 Fair 46°F (7.8°C) 101.59 kPa 10 miles 66% 35.6°F (2°C) 3 mph S 173.75°
19:00 Mostly Cloudy 48°F (8.9°C) 101.59 kPa 10 miles 62% 35.6°F (2°C) 5 mph S 173.75°
18:00 Fair 48°F (8.9°C) 101.59 kPa 10 miles 62% 35.6°F (2°C) 3 mph S 173.75°
17:00 Fair 50°F (10°C) 101.59 kPa 10 miles 58% 35.6°F (2°C) 6 mph S 173.75°
16:00 Fair 50°F (10°C) 101.59 kPa 10 miles 54% 33.8°F (1°C) 8 mph S 173.75°20 mph
15:00 Fair 50°F (10°C) 101.59 kPa 10 miles 54% 33.8°F (1°C) 10 mph S 173.75°20 mph
14:00 Fair 52°F (11.1°C) 101.59 kPa 10 miles 50% 33.8°F (1°C) 13 mph S 173.75°17 mph
13:00 Fair 46°F (7.8°C) 101.59 kPa 10 miles 62% 33.8°F (1°C) 9 mph S 173.75°23 mph
12:00 Fair 45°F (7.2°C) 101.59 kPa 10 miles 66% 33.8°F (1°C) 10 mph S 173.75°16 mph
11:00 Fair 41°F (5°C) 101.59 kPa 10 miles 70% 32°F (0°C) 10 mph S 173.75°16 mph
10:00 Fair 41°F (5°C) 101.59 kPa 10 miles 70% 32°F (0°C) 12 mph S 173.75°17 mph
09:00 Fair 37°F (2.8°C) 101.59 kPa 10 miles 81% 32°F (0°C) 5 mph S 173.75°
08:00 Fair 34°F (1.1°C) 101.59 kPa 10 miles 93% 32°F (0°C) 3 mph S 173.75°
07:00 Fair 28°F (-2.2°C) 101.59 kPa 10 miles 100% 28.4°F (-2°C) 3 mph E 83.75°


Home | Earthquakes | About Us | Contact Us | Privacy

Copyright Friendly Forecast 2012 - 2023